Location: Marcé
(47.5801°N, 0.3280°W)
Time: 21:35:35
(UTC+01:00)

Transit 2A - Pass Details

Date: 04 December 2021
Orbit: 591 x 967 km, 66.7° (Epoch: 23 January)

Event Time Altitude Azimuth Distance (km) Brightness Sun altitude
Rises 10:02:23 0° 323° (NW) 3,661 8.8 10.5°
Reaches altitude 10° 10:05:00 10° 320° (NW) 2,715 8.2 10.7°
Maximum altitude 10:11:16 59° 243° (WSW) 1,093 6.9 11.4°
Drops below altitude 10° 10:17:16 10° 165° (SSE) 2,596 10.3 12.0°
Sets 10:19:44 0° 162° (SSE) 3,490 11.0 12.2°
